#timestamp,LO_Frequency,Hit 
1503133215.6,286046999.5,N
1503133235.5,286047001.2,N
1503133255.3,286047000.3,N
1503133275.1,286047000.3,N
1503133295.9,286047000.3,N
1503133315.7,286046998.6,N
1503133335.5,286047001.1,N
1503133355.4,286047000.1,N
1503133375.2,286047000.2,N
1503133395.0,286047000.0,N
1503133395.9,286047000.0,N
1503133415.8,286047000.2,N
1503133435.6,286047002.4,N
1503133455.4,286047004.3,N
1503133475.2,286047004.2,N
1503133495.1,286046999.8,N
1503133496.0,286046999.8,N
1503133515.8,286047002.0,N
1503133535.6,286047000.5,N
1503133555.5,286047001.2,N
1503133575.3,286046999.7,N
1503133595.1,286047000.7,N
1503133615.9,286047001.0,N
1503133635.7,286046998.1,N
1503133655.5,286047000.7,N
1503133675.4,286046999.1,N
1503133695.2,286046998.3,N
1503133715.0,286047001.1,N
1503133715.9,286047001.1,N
1503133735.8,286047000.5,N
1503133755.6,286047000.3,N
1503133775.4,286047002.4,N
1503133795.2,286047002.5,N
1503133815.1,286047004.0,N
1503133816.0,286047004.0,N
1503133835.8,286047002.0,N
1503133855.1,286047001.9,N
1503133875.9,286047001.8,N
1503133895.7,286047004.2,N
1503133915.5,286047005.1,P
1503133935.4,286047006.0,P
1503133955.2,286047003.7,N
1503133975.0,286047001.7,N
1503133975.9,286047001.7,N
1503133995.8,286047001.4,N
1503134015.6,286047001.9,N
1503134035.4,286047001.9,N
1503134055.3,286047004.1,N
1503134075.1,286047004.3,N
1503134095.8,286047001.9,N
1503134115.7,286047001.9,N
1503134135.5,286047001.9,N
1503134155.3,286047001.5,N
1503134175.2,286047004.2,N
1503134195.9,286047002.5,N
1503134215.7,286047002.4,N
1503134235.5,286047002.2,N
1503134255.4,286047002.5,N
1503134275.2,286047002.2,N
1503134295.0,286047002.4,N
1503134295.9,286047002.4,N
1503134315.8,286047002.8,N
1503134335.6,286047002.8,N
1503134355.4,286047002.6,N
1503134375.3,286047001.1,N
1503134395.1,286047001.0,N
1503134415.8,286046998.5,N
1503134435.7,286047000.7,N
1503134455.5,286047000.0,N
1503134475.3,286047001.2,N
1503134495.2,286047001.1,N
1503134515.9,286047002.2,N
1503134535.7,286047000.5,N
1503134555.5,286047000.3,N
1503134575.4,286047004.0,P
1503134595.2,286046999.9,N
1503134615.1,286047000.3,N
1503134616.0,286047000.3,N
1503134635.8,286047001.8,N
1503134655.6,286047004.3,P
1503134675.5,286046998.2,N
1503134695.3,286046996.9,N
1503134715.1,286046995.0,N
1503134735.9,286046995.8,N
1503134755.7,286046997.8,N
1503134775.5,286046996.9,N
1503134795.4,286046997.6,N
1503134815.2,286046996.5,N
1503134835.0,286046998.7,N
1503134835.9,286046998.7,N
1503134855.8,286046999.5,N
1503134875.6,286046999.5,N
1503134895.4,286046998.3,N
1503134915.2,286046996.7,N
1503134935.1,286046999.4,N
1503134936.0,286046999.4,N
1503134955.8,286046998.3,N
1503134975.6,286047001.1,N
1503134995.5,286046998.9,N
1503135015.3,286046999.5,N
1503135035.1,286046998.9,N
1503135055.9,286046999.5,N
1503135075.7,286046997.3,N
1503135095.5,286046996.6,N
1503135115.4,286047001.1,N
1503135135.2,286047000.6,N
1503135155.0,286046999.0,N
1503135155.9,286046999.0,N
1503135175.8,286046999.7,N
1503135195.6,286047001.6,N
1503135215.4,286047000.5,N
1503135235.2,286047004.2,N
1503135255.1,286047005.9,P
1503135256.0,286047005.9,N
1503135275.8,286047002.9,N
1503135295.7,286047005.4,N
1503135315.5,286047003.8,N
1503135335.3,286047002.3,N
1503135355.1,286047000.1,N
1503135375.9,286046999.7,N
1503135395.7,286047004.4,N
1503135415.5,286047001.6,N
1503135435.4,286047002.7,N
1503135455.2,286047004.3,N
1503135475.0,286047004.4,N
1503135475.9,286047004.4,N
1503135495.8,286046998.5,N
1503135515.6,286046998.1,N
1503135535.4,286047001.2,N
1503135555.3,286046998.4,N
1503135575.1,286047000.7,N
1503135576.0,286047000.7,N
1503135595.8,286046997.0,N
1503135615.7,286046996.8,N
1503135635.5,286046999.2,N
1503135655.3,286046998.4,N
1503135675.1,286047001.2,N
1503135695.9,286046998.1,N
1503135715.7,286046998.6,N
1503135735.5,286046998.4,N
1503135755.4,286046999.3,N
1503135775.2,286047001.2,N
1503135795.0,286046996.9,N
1503135795.9,286046996.9,N
1503135815.8,286046997.2,N
1503135835.6,286046995.6,N
1503135855.4,286046997.6,N
1503135875.3,286046995.6,N
1503135895.1,286046997.2,N
1503135896.0,286046997.2,N
1503135915.8,286046997.7,N
1503135935.7,286046996.8,N
1503135955.5,286046997.2,N
1503135975.3,286046997.3,N
1503135995.1,286046997.9,N
1503136015.9,286046996.6,N
1503136035.7,286046995.3,P
1503136055.6,286046997.1,N
1503136075.4,286046999.3,N
1503136095.2,286046998.8,N
1503136115.0,286046998.5,N
1503136116.0,286046998.5,N
1503136135.8,286046996.6,N
1503136155.6,286046998.7,N
1503136175.4,286046996.5,N
1503136195.3,286047001.0,N
1503136215.1,286047001.9,N
1503136235.8,286047002.6,N
1503136255.7,286047002.8,N
1503136275.5,286047001.2,N
1503136295.3,286046998.8,N
1503136315.2,286046999.3,N
1503136335.9,286046998.4,N
1503136355.7,286046998.7,N
1503136375.6,286046998.7,N
1503136395.4,286046999.8,N
1503136415.2,286047001.0,N
1503136435.0,286047000.4,N
1503136435.9,286047000.4,N
1503136455.8,286046998.8,N
1503136475.6,286046998.5,N
1503136495.4,286047000.8,N
1503136515.3,286046998.2,N
1503136535.1,286046999.0,N
1503136555.8,286046998.8,N
1503136575.7,286046998.8,N
1503136595.5,286046996.9,N
1503136615.3,286046997.1,N
1503136635.2,286046997.3,N
1503136655.9,286046995.5,N
1503136675.7,286046993.3,P
1503136695.6,286046995.8,N
1503136715.4,286046995.8,N
1503136735.2,286046995.8,N
1503136755.1,286046994.9,N
1503136756.0,286046994.9,N
1503136775.8,286046996.7,N
1503136795.6,286046997.7,N
